CW9921 Weather Reports


time (UTC)temp
C
wind
direction
speed
KPH
gust
KPH
rain 1hr
cm
rain 24hr
cm
rain mn
cm
humidity
%
barometer
mb
20260504081555 7 0 0.0 0.0 0.00 0.00 0.00 86 1016.5
20260504044548 9 0 0.0 0.0 0.00 0.00 0.00 80 1017.2
20260504043054 10 0 0.0 0.0 0.00 0.00 0.00 79 1017.2
20260504041549 10 0 0.0 0.0 0.00 0.00 0.00 77 1017.5
20260504040056 10 0 0.0 0.0 0.00 0.00 0.00 77 1017.5
20260504034554 10 0 0.0 0.0 0.00 0.00 0.00 76 1017.7
20260504033054 11 0 0.0 0.0 0.00 0.00 0.00 75 1017.7
20260504031554 11 0 0.0 0.0 0.00 0.00 0.00 74 1017.8
20260504030050 11 0 0.0 0.0 0.00 0.00 0.00 71 1017.8
20260504024608 11 0 0.0 1.6 0.00 0.00 0.00 71 1017.6
20260504023053 11 0 0.0 0.0 0.00 0.00 0.00 71 1017.3
20260504021554 11 0 0.0 0.0 0.00 0.00 0.00 70 1017.3
20260504020050 11 0 0.0 0.0 0.00 0.00 0.00 69 1017.3
20260504014558 12 0 0.0 0.0 0.00 0.00 0.00 68 1017.3
20260504013056 12 0 0.0 0.0 0.00 0.00 0.00 67 1017.2
20260504011550 12 0 0.0 0.0 0.00 0.00 0.00 65 1017.2
20260504004550 14 0 0.0 0.0 0.00 0.00 0.00 59 1017.1
20260504003055 15 0 0.0 0.0 0.00 0.00 0.00 54 1017.2
20260504001550 16 0 0.0 0.0 0.00 0.00 0.00 49 1017.3
20260504000130 17 0 0.0 0.0 0.00 0.00 0.00 47 1017.0
20260503234559 17 0 0.0 1.6 0.00 0.00 0.00 45 1017.1
20260503233058 17 0 0.0 1.6 0.00 0.00 0.00 44 1017.3
20260503231555 17 0 1.6 3.2 0.00 0.00 0.00 45 1017.4
20260503230055 18 259 0.0 1.6 0.00 0.00 0.00 46 1017.7
20260503224558 18 0 0.0 4.8 0.00 0.00 0.00 44 1017.8
20260503223057 18 300 0.0 3.2 0.00 0.00 0.00 43 1017.9
20260503221600 18 0 0.0 4.8 0.00 0.00 0.00 43 1017.8
20260503220057 18 265 0.0 1.6 0.00 0.00 0.00 44 1017.7
20260503214553 19 0 0.0 3.2 0.00 0.00 0.00 43 1018.0
20260503213052 20 266 0.0 8.0 0.00 0.00 0.00 41 1018.0
20260503211602 20 278 1.6 6.4 0.00 0.00 0.00 42 1018.3
20260503210101 20 259 0.0 6.4 0.00 0.00 0.00 43 1018.5
20260503204558 20 295 0.0 4.8 0.00 0.00 0.00 43 1018.7
20260503203110 20 0 0.0 4.8 0.00 0.00 0.00 42 1018.8
20260503201554 20 269 1.6 6.4 0.00 0.00 0.00 39 1019.1
20260503200051 20 0 1.6 3.2 0.00 0.00 0.00 39 1019.4
20260503194557 20 0 0.0 3.2 0.00 0.00 0.00 44 1019.7
20260503193055 20 273 1.6 6.4 0.00 0.00 0.00 43 1019.9
20260503191551 20 285 1.6 4.8 0.00 0.00 0.00 42 1020.2
20260503190053 19 0 0.0 4.8 0.00 0.00 0.00 43 1020.5
20260503184550 20 0 0.0 3.2 0.00 0.00 0.00 43 1020.6
20260503183052 19 257 0.0 4.8 0.00 0.00 0.00 43 1020.6
20260503181601 20 0 0.0 3.2 0.00 0.00 0.00 41 1020.8
20260503180052 20 0 0.0 1.6 0.00 0.00 0.00 46 1020.8
20260503174552 18 0 0.0 1.6 0.00 0.00 0.00 43 1021.0
20260503173057 18 0 0.0 3.2 0.00 0.00 0.00 44 1021.3
20260503171552 17 132 0.0 6.4 0.00 0.00 0.00 47 1021.4